This is the latest recevied weather packets stored in our database for station/object OH2TI. If no packets are shown the sender has not sent any weather packets the latest 10 day(s).
| Time | Temp. | Humidity | Pressure | Rain* | Wind** | Luminosity | Snow |
|---|---|---|---|---|---|---|---|
| 1777895054 | 8.89° C | 88% | 999.1 hPa | - | - | - | - |
| 1777894384 | 8.89° C | 87% | 999.2 hPa | - | - | - | - |
| 1777894026 | 8.89° C | 89% | 999.1 hPa | - | - | - | - |
| 1777893242 | 8.33° C | 88% | 999.1 hPa | - | - | - | - |
| 1777892684 | 8.33° C | 87% | 999.2 hPa | - | - | - | - |
| 1777892174 | 8.33° C | 87% | 999.3 hPa | - | - | - | - |
| 1777891589 | 8.33° C | 87% | 999.4 hPa | - | - | - | - |
| 1777890909 | 8.33° C | 85% | 999.5 hPa | - | - | - | - |
| 1777890419 | 8.33° C | 83% | 999.6 hPa | - | - | - | - |
| 1777889549 | 8.89° C | 83% | 999.7 hPa | - | - | - | - |
| 1777888879 | 8.33° C | 83% | 999.9 hPa | - | - | - | - |
| 1777888454 | 8.33° C | 81% | 1000.1 hPa | - | - | - | - |
| 1777887816 | 8.33° C | 81% | 1000.3 hPa | - | - | - | - |
| 1777887362 | 8.33° C | 79% | 1000.5 hPa | - | - | - | - |
| 1777886991 | 8.33° C | 77% | 1000.6 hPa | - | - | - | - |
| 1777886209 | 8.89° C | 74% | 1000.5 hPa | - | - | - | - |
| 1777885581 | 9.44° C | 69% | 1000.4 hPa | - | - | - | - |
| 1777884994 | 10° C | 63% | 1000.5 hPa | - | - | - | - |
| 1777884369 | 10° C | 60% | 1000.6 hPa | - | - | - | - |
| 1777883804 | 10° C | 56% | 1000.7 hPa | - | - | - | - |
| 1777883254 | 10° C | 55% | 1000.8 hPa | - | - | - | - |
| 1777882611 | 10.56° C | 52% | 1000.9 hPa | - | - | - | - |
| 1777882302 | 10.56° C | 51% | 1000.9 hPa | - | - | - | - |
| 1777881411 | 11.11° C | 50% | 1000.9 hPa | - | - | - | - |
| 1777880736 | 11.11° C | 49% | 1000.9 hPa | - | - | - | - |
* Rain since midnight (hover to see other rain measurements)
** Current wind speed in m/s (hover to see current wind gust speed)